DG5TKE Weather Reports


time (UTC)temp
C
wind
direction
speed
KPH
gust
KPH
rain 1hr
cm
rain 24hr
cm
rain mn
cm
humidity
%
barometer
mb
20260903040008 11 215 3.2 4.8 0.00 0.00 0.00 90 1017.8
20260903035008 11 229 1.6 4.8 0.00 0.00 0.00 89 1017.9
20260903034006 11 203 1.6 4.8 0.00 0.00 0.00 89 1017.8
20260903033006 11 212 3.2 8.0 0.00 0.00 0.00 89 1018.1
20260903032006 12 226 3.2 6.4 0.00 0.00 0.00 89 1018.0
20260903031003 12 215 1.6 6.4 0.00 0.00 0.00 89 1018.1
20260903030221 12 206 3.2 6.4 0.00 0.00 0.00 89 1018.2
20260903025006 12 192 3.2 8.0 0.00 0.00 0.00 89 1018.1
20260903024006 12 194 4.8 9.7 0.00 0.00 0.00 89 1018.1
20260903023006 12 194 1.6 8.0 0.00 0.00 0.00 90 1018.1
20260903022006 12 221 1.6 4.8 0.00 0.00 0.00 90 1018.2
20260903021006 12 211 0.0 4.8 0.00 0.00 0.00 90 1018.2
20260903020007 12 227 1.6 3.2 0.00 0.00 0.00 89 1018.1
20260903015003 12 0 0.0 3.2 0.00 0.00 0.00 89 1018.2
20260903014003 12 0 0.0 0.0 0.00 0.00 0.00 89 1018.2
20260903013006 12 0 0.0 0.0 0.00 0.00 0.00 89 1018.2
20260903012003 12 0 0.0 0.0 0.00 0.00 0.00 89 1018.3
20260903011006 12 0 0.0 0.0 0.00 0.00 0.00 88 1018.4
20260903010220 12 0 0.0 0.0 0.00 0.00 0.00 88 1018.4
20260903005006 12 0 0.0 0.0 0.00 0.00 0.00 87 1018.3
20260903004006 12 0 0.0 0.0 0.00 0.00 0.00 87 1018.3
20260903003003 12 0 0.0 0.0 0.00 0.03 0.00 87 1018.3
20260903002006 12 0 0.0 3.2 0.00 0.03 0.00 87 1018.3
20260903001220 12 0 0.0 3.2 0.00 0.03 0.00 86 1018.3
20260903000222 12 0 0.0 0.0 0.00 0.03 0.00 86 1018.3
20260902235003 12 0 0.0 0.0 0.00 0.03 0.00 86 1018.4
20260902234006 13 0 0.0 1.6 0.00 0.03 0.00 85 1018.3
20260902233006 13 0 0.0 3.2 0.00 0.03 0.00 85 1018.3
20260902232006 13 0 0.0 0.0 0.00 0.03 0.00 85 1018.3
20260902231006 13 0 0.0 0.0 0.00 0.03 0.00 85 1018.3
20260902230006 13 201 1.6 4.8 0.00 0.03 0.00 85 1018.3
20260902225003 13 0 0.0 6.4 0.00 0.03 0.00 85 1018.3
20260902224003 13 0 0.0 0.0 0.00 0.03 0.00 84 1018.3
20260902223003 13 0 0.0 0.0 0.00 0.03 0.00 84 1018.3
20260902222004 13 0 0.0 0.0 0.00 0.03 0.00 83 1018.4
20260902221006 13 0 0.0 0.0 0.00 0.03 0.00 83 1018.3
20260902220007 13 0 0.0 0.0 0.00 0.03 0.00 82 1018.2
20260902215006 13 0 0.0 0.0 0.00 0.03 0.03 82 1018.1
20260902214003 14 0 0.0 0.0 0.00 0.03 0.03 81 1018.1
20260902213006 14 0 0.0 0.0 0.00 0.03 0.03 80 1018.0
20260902212221 14 0 0.0 0.0 0.00 0.03 0.03 80 1017.9
20260902211006 14 0 0.0 0.0 0.00 0.03 0.03 79 1017.9
20260902210007 15 0 0.0 0.0 0.00 0.03 0.03 78 1017.8
20260902205220 15 0 0.0 0.0 0.00 0.03 0.03 78 1017.8
20260902204003 15 0 0.0 0.0 0.00 0.03 0.03 77 1017.8
20260902203003 15 0 0.0 0.0 0.00 0.03 0.03 75 1017.7
20260902202218 16 0 0.0 0.0 0.00 0.03 0.03 73 1017.7
20260902201003 16 0 0.0 0.0 0.00 0.03 0.03 72 1017.7
20260902200007 16 280 4.8 6.4 0.00 0.03 0.03 72 1017.7
20260902195007 16 282 4.8 11.3 0.00 0.03 0.03 70 1017.6
20260902194003 16 282 4.8 9.7 0.00 0.03 0.03 70 1017.6
20260902193006 17 283 3.2 11.3 0.00 0.03 0.03 69 1017.6
20260902192004 17 288 4.8 12.9 0.00 0.05 0.03 68 1017.5
20260902191006 17 276 4.8 12.9 0.00 0.05 0.03 67 1017.5
20260902190218 17 265 4.8 12.9 0.00 0.05 0.03 67 1017.3
20260902185006 17 264 3.2 12.9 0.00 0.05 0.03 67 1017.2
20260902184003 17 259 1.6 6.4 0.00 0.05 0.03 66 1017.2
20260902183003 17 261 3.2 9.7 0.00 0.05 0.03 65 1017.1
20260902182222 17 256 3.2 6.4 0.00 0.05 0.03 64 1017.0
20260902181006 18 248 3.2 4.8 0.00 0.05 0.03 64 1016.9
20260902180008 18 264 3.2 6.4 0.00 0.05 0.03 64 1016.8
20260902175221 19 256 3.2 6.4 0.00 0.05 0.03 62 1016.7
20260902174006 20 266 1.6 4.8 0.00 0.05 0.03 60 1016.6
20260902173007 20 285 1.6 4.8 0.00 0.05 0.03 57 1016.5
20260902172006 20 295 3.2 6.4 0.00 0.05 0.03 54 1016.5
20260902171003 21 254 1.6 6.4 0.00 0.05 0.03 53 1016.4
20260902170003 21 238 3.2 6.4 0.00 0.05 0.03 52 1016.5
20260902165217 21 248 3.2 8.0 0.00 0.05 0.03 52 1016.4
20260902164006 21 249 1.6 9.7 0.00 0.05 0.03 51 1016.4
20260902163007 22 260 4.8 9.7 0.00 0.05 0.03 52 1016.3
20260902162004 22 272 8.0 19.3 0.00 0.05 0.03 51 1016.3
20260902161003 22 255 6.4 20.9 0.00 0.05 0.03 50 1016.3
20260902160009 22 268 8.0 22.5 0.00 0.05 0.03 51 1016.3
20260902155006 22 298 3.2 19.3 0.00 0.05 0.03 52 1016.2
20260902154003 22 296 1.6 9.7 0.00 0.05 0.03 54 1016.2
20260902153006 22 273 3.2 4.8 0.00 0.05 0.03 54 1016.2
20260902152220 22 271 3.2 9.7 0.00 0.05 0.03 54 1016.3
20260902151006 22 287 4.8 11.3 0.00 0.05 0.03 54 1016.4
20260902150219 22 297 3.2 14.5 0.00 0.05 0.03 53 1016.4
20260902145003 22 289 1.6 4.8 0.00 0.05 0.03 55 1016.4
20260902144003 23 291 4.8 14.5 0.00 0.05 0.03 54 1016.3
20260902143220 23 337 4.8 14.5 0.00 0.05 0.03 54 1016.4
20260902142003 23 302 6.4 19.3 0.00 0.05 0.03 55 1016.3
20260902141006 23 282 3.2 17.7 0.00 0.05 0.03 52 1016.3
20260902140220 23 298 4.8 11.3 0.00 0.05 0.03 53 1016.3
20260902135003 23 357 6.4 12.9 0.00 0.05 0.03 53 1016.2
20260902134003 23 323 6.4 17.7 0.00 0.05 0.03 53 1016.3
20260902133003 23 350 6.4 16.1 0.00 0.05 0.03 55 1016.3
20260902132006 23 336 4.8 16.1 0.00 0.05 0.03 52 1016.3
20260902131217 23 10 3.2 12.9 0.00 0.05 0.03 55 1016.4
20260902130007 23 257 8.0 24.1 0.00 0.05 0.03 57 1016.5
20260902125218 23 306 4.8 24.1 0.00 0.05 0.03 52 1016.6
20260902124006 23 302 3.2 8.0 0.00 0.05 0.03 59 1016.6
20260902123006 23 133 3.2 11.3 0.00 0.05 0.03 56 1016.6
20260902122003 23 222 4.8 11.3 0.00 0.05 0.03 57 1016.7
20260902121006 23 169 6.4 17.7 0.00 0.05 0.03 57 1016.8
20260902120003 23 149 6.4 16.1 0.00 0.05 0.03 60 1017.0
20260902115217 22 154 8.0 16.1 0.00 0.05 0.03 62 1017.0
20260902114003 22 120 6.4 17.7 0.00 0.05 0.03 61 1017.2
20260902113003 22 131 4.8 12.9 0.00 0.05 0.03 63 1017.4
20260902112006 21 118 4.8 11.3 0.00 0.05 0.03 65 1017.6
20260902111007 21 80 4.8 12.9 0.00 0.05 0.03 65 1017.8
20260902110008 20 75 4.8 9.7 0.00 0.05 0.03 68 1017.9
20260902105217 20 90 1.6 9.7 0.00 0.05 0.03 70 1018.0
20260902104006 20 152 1.6 8.0 0.00 0.05 0.03 72 1018.1
20260902103011 19 96 3.2 6.4 0.00 0.05 0.03 71 1018.2
20260902102220 19 80 3.2 8.0 0.00 0.05 0.03 72 1018.3
20260902101003 18 128 1.6 6.4 0.00 0.05 0.03 75 1018.4
20260902100220 18 111 1.6 6.4 0.00 0.05 0.03 76 1018.5
20260902095006 18 141 3.2 6.4 0.00 0.05 0.03 79 1018.7
20260902094218 17 147 3.2 8.0 0.00 0.05 0.03 80 1018.7
20260902093003 17 135 3.2 9.7 0.00 0.05 0.03 83 1018.6
20260902092003 16 130 3.2 6.4 0.00 0.05 0.03 87 1018.7
20260902091006 16 134 3.2 9.7 0.00 0.05 0.03 90 1018.7
20260902090004 15 170 3.2 9.7 0.00 0.05 0.03 91 1018.7
20260902085003 15 164 3.2 8.0 0.00 0.05 0.03 92 1018.8
20260902084007 15 164 3.2 8.0 0.00 0.05 0.03 94 1018.8
20260902083006 14 172 3.2 12.9 0.00 0.05 0.03 94 1018.9
20260902082008 13 181 3.2 9.7 0.00 0.05 0.03 94 1018.8
20260902081218 13 157 1.6 6.4 0.00 0.05 0.03 95 1018.8
20260902080003 13 178 1.6 3.2 0.00 0.05 0.03 95 1018.9
20260902075006 13 148 0.0 4.8 0.00 0.05 0.03 95 1018.9
20260902074006 13 0 0.0 0.0 0.00 0.05 0.03 95 1019.0
20260902073003 12 0 0.0 0.0 0.00 0.05 0.03 95 1018.9
20260902072006 12 161 1.6 3.2 0.00 0.05 0.03 95 1019.0
20260902071006 12 138 3.2 8.0 0.00 0.05 0.03 95 1018.8
20260902070005 12 166 3.2 6.4 0.00 0.05 0.03 95 1018.9
20260902065006 12 193 1.6 8.0 0.00 0.05 0.03 95 1018.9
20260902064217 12 167 1.6 8.0 0.00 0.05 0.03 95 1018.8
20260902063223 12 178 3.2 8.0 0.00 0.05 0.03 95 1018.8
20260902062006 11 156 3.2 11.3 0.00 0.05 0.03 94 1018.8
20260902061436 11 160 3.2 11.3 0.00 0.05 0.03 94 1018.8
20260902060003 11 153 1.6 6.4 0.00 0.05 0.03 94 1018.8
20260902055006 11 136 1.6 4.8 0.00 0.05 0.03 94 1018.9
20260902054217 11 133 1.6 4.8 0.00 0.05 0.03 94 1018.9
20260902053006 11 216 1.6 4.8 0.00 0.05 0.03 94 1019.1
20260902052006 11 164 1.6 6.4 0.00 0.05 0.03 94 1018.9
20260902051006 11 0 0.0 0.0 0.00 0.05 0.03 94 1018.8
20260902050218 11 202 1.6 4.8 0.00 0.05 0.03 94 1018.7
20260902045006 11 214 0.0 4.8 0.00 0.05 0.03 94 1018.7
20260902044218 11 0 0.0 0.0 0.00 0.05 0.03 93 1018.7
20260902043220 11 0 0.0 0.0 0.00 0.05 0.03 94 1018.6
20260902042006 11 0 0.0 0.0 0.00 0.05 0.03 93 1018.6
20260902041003 11 0 0.0 0.0 0.00 0.05 0.03 93 1018.7